Regional Weather Roundup
Issued by NWS

Home | Current Version | Previous Version | Text Only | Print | Product List | Glossary Off
Versions: 1 2 3 4 5 6 7 8 9 10 11 12 13 14 15 16 17 18 19 20 21 22 23 24 25 26 27 28 29 30 31 32 33 34 35 36 37 38 39 40 41 42 43 44 45 46 47 48 49 50

000
ASUS43 KLSX 230507
RWRMO

WEATHER SUMMARY FOR MISSOURI
NATIONAL WEATHER SERVICE SPRINGFIELD MO
1200 AM CDT THU OCT 23 2014

NOTE: "FAIR" INDICATES FEW OR NO CLOUDS BELOW 12,000 FEET WITH NO
       SIGNIFICANT WEATHER AND/OR OBSTRUCTIONS TO VISIBILITY.
       CURRENT SKY AND/OR WEATHER CONDITIONS ARE NOT AVAILABLE FOR
       CHILLICOTHE AND FARMINGTON.

MOZ001>031-035>038-043-044-053-054-230600-
...NORTHERN AND WESTERN MISSOURI...

CITY           SKY/WX    TMP DP  RH WIND       PRES   REMARKS
KANSAS CTY INT CLOUDY    60  51  72 SE14      30.10F
KANSAS C DTWN  MOCLDY    64  49  57 S7        30.11S
LEE`S SUMMIT   MOCLDY    59  48  67 S6        30.12F
ST JOSEPH      CLOUDY    61  50  67 S6        30.09F
CHILLICOTHE      N/A     55  44  66 SE3       30.15F
KIRKSVILLE     CLEAR     48  43  82 SE9       30.18F

$$
MOZ066>068-077>081-088>096-101>105-230600-
...SOUTHWEST MISSOURI...

CITY           SKY/WX    TMP DP  RH WIND       PRES   REMARKS
SPRINGFIELD    CLEAR     53  47  79 SE9       30.16F
JOPLIN         PTCLDY    59  51  75 SE7       30.14F

$$
MOZ032>034-039>042-045>050-055>058-069>072-230600-
...CENTRAL MISSOURI...

CITY           SKY/WX    TMP DP  RH WIND       PRES   REMARKS
COLUMBIA       CLEAR     49  41  74 SE7       30.18F
JEFFERSON CITY CLEAR     47  41  80 SE6       30.18F
ROLLA          CLEAR     46  39  76 SE7       30.18F
SEDALIA        MOCLDY    53  45  74 SE7       30.16F
WHITEMAN AFB   CLEAR     55  47  74 S7        30.14S
OSAGE BEACH    PTCLDY    52  43  71 SE6       30.18S

$$
MOZ051-052-059>065-230600-
...EAST CENTRAL MISSOURI...

CITY           SKY/WX    TMP DP  RH WIND       PRES   REMARKS
ST LOUIS INTL  PTCLDY    48  41  76 E9        30.23F
SPIRIT OF STL  CLEAR     39  38  96 CALM      30.21F
ST CHARLES     CLEAR     43  39  86 E8        30.22F

$$
MOZ072>076-082>087-097>100-106>115-230600-
...SOUTH CENTRAL AND SOUTHEAST MISSOURI...

CITY           SKY/WX    TMP DP  RH WIND       PRES   REMARKS
CAPE GIRARDEAU CLEAR     44  42  93 CALM      30.24S
FARMINGTON     CLEAR     41  39  93 CALM      30.24F
POPLAR BLUFF   CLEAR     43  39  86 CALM      30.21F
WEST PLAINS    CLEAR     41  38  89 CALM      30.22S

$$



USA.gov is the U.S. government's official web portal to all federal, state and local government web resources and services.